Вернуться в каталог

STARLINK-36808

АктивенСвязьSSO
NORAD 67881·PAYLOAD·🇺🇸 United States

Запущен Feb 21, 2026 с Vandenberg Space Force Base

Loading…

Ближайшие Пролёты (ближайшие 24 часа)

TLE

СвежийSource: CelesTrak SupGP

Эпоха: Sep 14, 2026, 21:08 UTC

1 67881C 26035C   26257.88104167 -.00050261  00000+0 -15606-2 0  2575
2 67881  97.2846 189.8413 0002154  92.8910 274.4500 15.33456017    11

Отслеживайте STARLINK-36808 в реальном времени с AllMySat

Download on the App Store